Simultaneous Nadir Overpasses (SNOs) Predictions

Prediction of SNOs between METOP-A and TERRA Satellite Orbit:

Table of predicted SNOs for the next 14.0 days since TLE Epoch: 7/6/2013
Index Date (METOP-A) Time (METOP-A) Lat,Lon (METOP-A) SZA (METOP-A ) Date (TERRA) Time (TERRA) Lat,Lon (TERRA) SZA (TERRA ) Distance(km) Time Diff (sec)
1 07/08/2013 03:40:56 81.30, 171.72 61.59 07/08/2013 03:41:38 81.30, 171.67 61.60 0.91 42
2 07/08/2013 04:31:37 -81.30, -20.90 118.41 07/08/2013 04:31:05 -81.29, -20.76 118.41 2.37 32
3 07/10/2013 23:15:21 81.29,-122.03 61.90 07/10/2013 23:15:51 81.30,-121.87 61.94 2.83 30
4 07/11/2013 00:06:01 -81.30, 45.77 118.04 07/11/2013 00:05:18 -81.29, 45.73 118.07 0.88 43
5 07/13/2013 18:49:45 81.30, -55.42 62.31 07/13/2013 18:50:04 81.29, -55.47 62.31 0.90 19
6 07/13/2013 19:40:26 -81.30, 112.03 117.67 07/13/2013 19:39:31 -81.29, 112.15 117.69 2.17 55
7 07/16/2013 14:24:09 81.29, 10.77 62.72 07/16/2013 14:24:16 81.29, 10.85 62.73 1.47 7
8 07/16/2013 15:14:48 -81.31, 179.03 117.16 07/16/2013 15:13:42 -81.31, 178.88 117.21 2.63 66
9 07/19/2013 09:07:53 -81.29, -90.07 116.79 07/19/2013 09:09:02 -81.30, -90.13 116.76 1.12 69




NCC Satellite Simultaneous Nadir Overpasses (SNOs) Prediction Service
